Madison, MN

7:26 AM CST on December 06, 2019 (GMT -0600)
Madison-Lac Qui Parle County

Weather History for KDXX - October, 2019

Change the Weather History Date:

Monday, October 14, 2019

  Actual Average (KAQP) Record (KAQP)
Temperature  
Mean Temperature 40 °F -  
Max Temperature 55 °F 56 °F 73 °F (2016)
Min Temperature 26 °F 34 °F 19 °F (2006)
Degree Days  
Heating Degree Days 24    
Moisture  
Dew Point 33 °F    
Average Humidity 77    
Maximum Humidity 100    
Minimum Humidity 47    
Precipitation  
Precipitation 0.00 in - - ()
Sea Level Pressure  
Sea Level Pressure 29.92 in    
Wind  
Wind Speed 5 mph (SSE)    
Max Wind Speed 12 mph    
Max Gust Speed -    
Visibility 10 miles    
Events      
Averages and records for this station are not official NWS values.
T = Trace of Precipitation, MM = Missing Value Source: NWS Daily Summary

Daily Weather History Graph

Daily Weather History Graph

Search for Another Location

Airport or City:

Astronomy

Oct. 14, 2019 Rise Set
Actual Time 7:38 AM CDT 6:41 PM CDT
Civil Twilight 7:09 AM CDT 7:11 PM CDT
Nautical Twilight 6:35 AM CDT 7:45 PM CDT
Astronomical Twilight 6:01 AM CDT 8:19 PM CDT
Moon 7:31 PM CDT (10/14) 8:10 AM CDT (10/14)
Length of Visible Light 12h 02m
Length of Day
11h 02m
Full, 99% of the Moon is Illuminated
Oct 14
Full
Oct 21
Last Quarter
Oct 27
New
Nov 4
First Quarter
Nov 12
Full

Hourly Weather History & Observations

Time (CDT) Temp. Windchill Dew Point Humidity Pressure Visibility Wind Dir Wind Speed Gust Speed Precip Events Conditions
12:19 AM 30.2 °F 25.4 °F 30.2 °F 100% 29.97 in 10.0 mi West 4.6 mph - N/A   Clear
12:36 AM 30.2 °F 25.4 °F 28.4 °F 93% 29.97 in 10.0 mi West 4.6 mph - N/A   Clear
12:56 AM 30.2 °F 25.4 °F 30.2 °F 100% 29.97 in 10.0 mi West 4.6 mph - N/A   Clear
1:35 AM 30.2 °F 25.4 °F 28.4 °F 93% 29.97 in 10.0 mi West 4.6 mph - N/A   Clear
1:39 AM 30.2 °F 25.4 °F 28.4 °F 93% 29.97 in 10.0 mi West 4.6 mph - N/A   Clear
1:57 AM 32.0 °F 27.5 °F 30.2 °F 93% 29.98 in 10.0 mi West 4.6 mph - N/A   Scattered Clouds
2:16 AM 33.8 °F 30.8 °F 30.2 °F 87% 29.98 in 10.0 mi WSW 3.5 mph - N/A   Scattered Clouds
2:35 AM 32.0 °F 27.5 °F 30.2 °F 93% 29.99 in 10.0 mi SW 4.6 mph - N/A   Clear
2:36 AM 32.0 °F 27.5 °F 30.2 °F 93% 29.99 in 10.0 mi SW 4.6 mph - N/A   Clear
2:55 AM 30.2 °F - 30.2 °F 100% 29.99 in 10.0 mi Calm Calm - N/A   Clear
2:56 AM 30.2 °F - 30.2 °F 100% 29.99 in 10.0 mi Calm Calm - N/A   Clear
3:18 AM 30.2 °F - 28.4 °F 93% 29.99 in 10.0 mi Calm Calm - N/A   Clear
3:36 AM 30.2 °F - 28.4 °F 93% 29.99 in 10.0 mi Calm Calm - N/A   Clear
3:55 AM 30.2 °F 26.7 °F 28.4 °F 93% 29.99 in 10.0 mi West 3.5 mph - N/A   Clear
3:56 AM 30.2 °F - 28.4 °F 93% 29.99 in 10.0 mi Calm Calm - N/A   Clear
4:15 AM 30.2 °F 26.7 °F 28.4 °F 93% 29.99 in 10.0 mi SW 3.5 mph - N/A   Clear
4:16 AM 30.2 °F 26.7 °F 28.4 °F 93% 29.99 in 10.0 mi SW 3.5 mph - N/A   Clear
4:35 AM 30.2 °F 26.7 °F 28.4 °F 93% 29.99 in 10.0 mi WSW 3.5 mph - N/A   Clear
4:40 AM 28.4 °F 24.6 °F 28.4 °F 100% 29.99 in 10.0 mi WSW 3.5 mph - N/A   Clear
4:57 AM 28.4 °F - 28.4 °F 100% 29.99 in 10.0 mi Calm Calm - N/A   Clear
5:15 AM 28.4 °F - 28.4 °F 100% 29.98 in 10.0 mi Calm Calm - N/A   Clear
5:35 AM 28.4 °F 22.2 °F 28.4 °F 100% 29.99 in 10.0 mi SW 5.8 mph - N/A   Clear
5:36 AM 28.4 °F 22.2 °F 28.4 °F 100% 29.99 in 10.0 mi SW 5.8 mph - N/A   Clear
5:55 AM 28.4 °F 23.3 °F 28.4 °F 100% 29.99 in 10.0 mi SW 4.6 mph - N/A   Clear
5:56 AM 28.4 °F 23.3 °F 28.4 °F 100% 29.99 in 10.0 mi SW 4.6 mph - N/A   Clear
6:18 AM 30.2 °F 24.3 °F 28.4 °F 93% 29.99 in 10.0 mi SW 5.8 mph - N/A   Clear
6:37 AM 30.2 °F 25.4 °F 28.4 °F 93% 29.99 in 10.0 mi SW 4.6 mph - N/A   Clear
6:56 AM 28.4 °F 23.3 °F 26.6 °F 93% 29.99 in 10.0 mi SW 4.6 mph - N/A   Clear
7:15 AM 28.4 °F 24.6 °F 28.4 °F 100% 29.99 in 10.0 mi SSW 3.5 mph - N/A   Clear
7:16 AM 28.4 °F 24.6 °F 28.4 °F 100% 29.99 in 10.0 mi SSW 3.5 mph - N/A   Clear
7:35 AM 26.6 °F - 24.8 °F 93% 29.99 in 10.0 mi Calm Calm - N/A   Clear
7:57 AM 28.4 °F - 26.6 °F 93% 29.99 in 10.0 mi Calm Calm - N/A   Clear
8:16 AM 28.4 °F 24.6 °F 28.4 °F 100% 29.99 in 10.0 mi South 3.5 mph - N/A   Clear
8:35 AM 30.2 °F - 28.4 °F 93% 29.99 in 10.0 mi Calm Calm - N/A   Clear
8:36 AM 30.2 °F - 28.4 °F 93% 29.99 in 10.0 mi Calm Calm - N/A   Clear
8:55 AM 32.0 °F - 30.2 °F 93% 29.98 in 10.0 mi Calm Calm - N/A   Clear
8:56 AM 32.0 °F - 30.2 °F 93% 29.98 in 10.0 mi Calm Calm - N/A   Clear
9:19 AM 35.6 °F - 33.8 °F 93% 29.98 in 10.0 mi Calm Calm - N/A   Clear
9:36 AM 35.6 °F - 33.8 °F 93% 29.98 in 10.0 mi Calm Calm - N/A   Clear
9:56 AM 39.2 °F 37.0 °F 35.6 °F 87% 29.98 in 10.0 mi South 3.5 mph - N/A   Clear
10:15 AM 41.0 °F 39.0 °F 33.8 °F 76% 29.98 in 10.0 mi SSE 3.5 mph - N/A   Clear
10:16 AM 41.0 °F 39.0 °F 33.8 °F 76% 29.98 in 10.0 mi SSE 3.5 mph - N/A   Clear
10:35 AM 42.8 °F 38.6 °F 33.8 °F 70% 29.98 in 10.0 mi SSW 6.9 mph - N/A   Clear
10:39 AM 42.8 °F 39.3 °F 33.8 °F 70% 29.98 in 10.0 mi SSW 5.8 mph - N/A   Clear
10:58 AM 42.8 °F 38.6 °F 33.8 °F 70% 29.98 in 10.0 mi South 6.9 mph - N/A   Clear
11:15 AM 44.6 °F 41.4 °F 33.8 °F 66% 29.98 in 10.0 mi South 5.8 mph - N/A   Clear
11:35 AM 44.6 °F 40.7 °F 33.8 °F 66% 29.97 in 10.0 mi SSE 6.9 mph - N/A   Clear
11:55 AM 46.4 °F 42.9 °F 35.6 °F 66% 29.96 in 10.0 mi SSE 6.9 mph - N/A   Clear
11:56 AM 46.4 °F 42.4 °F 33.8 °F 62% 29.96 in 10.0 mi South 8.1 mph - N/A   Clear
12:19 PM 46.4 °F 43.5 °F 33.8 °F 62% 29.95 in 10.0 mi South 5.8 mph - N/A   Clear
12:36 PM 48.2 °F - 35.6 °F 62% 29.94 in 10.0 mi SE 5.8 mph - N/A   Clear
12:56 PM 50.0 °F - 35.6 °F 58% 29.93 in 10.0 mi SE 9.2 mph - N/A   Clear
1:15 PM 51.8 °F - 35.6 °F 54% 29.93 in 10.0 mi South 5.8 mph - N/A   Clear
1:16 PM 51.8 °F - 35.6 °F 54% 29.93 in 10.0 mi South 6.9 mph - N/A   Clear
1:35 PM 51.8 °F - 33.8 °F 50% 29.92 in 10.0 mi South 8.1 mph - N/A   Clear
1:39 PM 51.8 °F - 33.8 °F 50% 29.92 in 10.0 mi South 6.9 mph - N/A   Clear
1:58 PM 51.8 °F - 33.8 °F 50% 29.91 in 10.0 mi SSE 8.1 mph - N/A   Clear
2:16 PM 53.6 °F - 33.8 °F 47% 29.90 in 10.0 mi SSE 8.1 mph - N/A   Clear
2:35 PM 53.6 °F - 35.6 °F 51% 29.89 in 10.0 mi SE 8.1 mph - N/A   Clear
2:36 PM 53.6 °F - 35.6 °F 51% 29.88 in 10.0 mi ESE 6.9 mph - N/A   Clear
2:55 PM 53.6 °F - 35.6 °F 51% 29.88 in 10.0 mi SE 9.2 mph - N/A   Clear
3:18 PM 53.6 °F - 35.6 °F 51% 29.86 in 10.0 mi ESE 8.1 mph - N/A   Clear
3:36 PM 55.4 °F - 35.6 °F 47% 29.86 in 10.0 mi ESE 10.4 mph - N/A   Clear
3:56 PM 53.6 °F - 35.6 °F 51% 29.85 in 10.0 mi ESE 9.2 mph - N/A   Clear
4:15 PM 55.4 °F - 35.6 °F 47% 29.83 in 10.0 mi ESE 10.4 mph - N/A   Clear
4:16 PM 55.4 °F - 35.6 °F 47% 29.83 in 10.0 mi ESE 11.5 mph - N/A   Clear
4:35 PM 55.4 °F - 35.6 °F 47% 29.83 in 10.0 mi SE 9.2 mph - N/A   Clear
4:57 PM 55.4 °F - 35.6 °F 47% 29.82 in 10.0 mi ESE 9.2 mph - N/A   Clear
5:15 PM 55.4 °F - 35.6 °F 47% 29.83 in 10.0 mi ESE 11.5 mph - N/A   Clear
5:35 PM 55.4 °F - 37.4 °F 51% 29.84 in 10.0 mi ESE 8.1 mph - N/A   Clear
5:36 PM 55.4 °F - 37.4 °F 51% 29.84 in 10.0 mi ESE 9.2 mph - N/A   Clear
5:55 PM 53.6 °F - 37.4 °F 54% 29.84 in 10.0 mi ESE 8.1 mph - N/A   Clear
5:59 PM 53.6 °F - 37.4 °F 54% 29.84 in 10.0 mi ESE 9.2 mph - N/A   Clear
6:17 PM 51.8 °F - 37.4 °F 58% 29.84 in 10.0 mi East 5.8 mph - N/A   Clear
6:36 PM 48.2 °F - 37.4 °F 66% 29.85 in 10.0 mi East 5.8 mph - N/A   Clear
6:55 PM 46.4 °F 42.9 °F 37.4 °F 71% 29.85 in 10.0 mi East 6.9 mph - N/A   Clear
6:56 PM 46.4 °F 42.9 °F 37.4 °F 71% 29.85 in 10.0 mi East 6.9 mph - N/A   Clear
7:15 PM 44.6 °F 40.7 °F 35.6 °F 71% 29.85 in 10.0 mi East 6.9 mph - N/A   Clear
7:36 PM 44.6 °F 41.4 °F 37.4 °F 76% 29.85 in 10.0 mi East 5.8 mph - N/A   Clear
7:55 PM 44.6 °F 40.2 °F 37.4 °F 76% 29.85 in 10.0 mi East 8.1 mph - N/A   Clear
7:56 PM 44.6 °F 40.7 °F 37.4 °F 76% 29.85 in 10.0 mi East 6.9 mph - N/A   Clear
8:15 PM 44.6 °F 40.2 °F 37.4 °F 76% 29.84 in 10.0 mi East 8.1 mph - N/A   Clear
8:16 PM 44.6 °F 40.2 °F 37.4 °F 76% 29.84 in 10.0 mi East 8.1 mph - N/A   Clear
8:35 PM 44.6 °F 40.2 °F 37.4 °F 76% 29.83 in 10.0 mi East 8.1 mph - N/A   Clear
8:40 PM 44.6 °F 40.2 °F 37.4 °F 76% 29.83 in 10.0 mi East 8.1 mph - N/A   Clear
8:57 PM 44.6 °F 40.7 °F 35.6 °F 71% 29.83 in 10.0 mi East 6.9 mph - N/A   Clear
9:15 PM 44.6 °F 40.7 °F 35.6 °F 71% 29.83 in 10.0 mi East 6.9 mph - N/A   Clear
9:35 PM 42.8 °F 39.3 °F 35.6 °F 76% 29.83 in 10.0 mi East 5.8 mph - N/A   Clear
9:36 PM 42.8 °F 39.3 °F 35.6 °F 76% 29.83 in 10.0 mi East 5.8 mph - N/A   Clear
9:55 PM 42.8 °F 39.3 °F 35.6 °F 76% 29.83 in 10.0 mi ENE 5.8 mph - N/A   Clear
9:56 PM 42.8 °F 39.3 °F 35.6 °F 76% 29.83 in 10.0 mi ENE 5.8 mph - N/A   Clear
10:18 PM 41.0 °F 37.1 °F 35.6 °F 81% 29.83 in 10.0 mi NE 5.8 mph - N/A   Clear
10:37 PM 41.0 °F 37.1 °F 35.6 °F 81% 29.83 in 10.0 mi ENE 5.8 mph - N/A   Clear
10:56 PM 41.0 °F 37.1 °F 35.6 °F 81% 29.83 in 10.0 mi NE 5.8 mph - N/A   Scattered Clouds
11:15 PM 41.0 °F 38.0 °F 35.6 °F 81% 29.83 in 10.0 mi NE 4.6 mph - N/A   Scattered Clouds
11:16 PM 41.0 °F 38.0 °F 35.6 °F 81% 29.83 in 10.0 mi NE 4.6 mph - N/A   Scattered Clouds
11:35 PM 39.2 °F 37.0 °F 35.6 °F 87% 29.82 in 10.0 mi NNE 3.5 mph - N/A   Scattered Clouds
11:57 PM 41.0 °F 38.0 °F 37.4 °F 87% 29.83 in 10.0 mi NW 4.6 mph - N/A   Mostly Cloudy